Hourly Data Report for January 06, 2018

All times are specified in Local Standard Time (LST). Add 1 hour to adjust for Daylight Saving Time where and when it is observed.

TORONTO INTL A
ONTARIO

43°40'36.000" N
79°37'50.000" W
173.40 m
6158731
71624
YYZ

Download Data

Hourly Data (January 2018)
Hourly Data Report for January 6, 2018
Temp Definition
°C
Dew Point Temp Definition
°C
Rel Hum Definition
%
Wind Dir Definition
10's deg

Wind Spd Definition
km/h
Visibility Definition
km
Stn Press Definition
kPa
Hmdx Definition


Wind Chill Definition


Weather Definition


TIME
00:00 Legend Double Dagger -20.2 -25.7 62 36 22 24.1 100.09   -31 LegendNANA
01:00 Legend Double Dagger -21.0 -26.1 64 35 16 24.1 100.16   -31 Mainly Clear
02:00 Legend Double Dagger -21.8 -26.7 65 36 17 24.1 100.25   -32 LegendNANA
03:00 Legend Double Dagger -22.3 -27.7 62 36 9 24.1 100.35   -29 LegendNANA
04:00 Legend Double Dagger -22.2 -26.9 66 36 9 24.1 100.41   -29 Mainly Clear
05:00 Legend Double Dagger -22.4 -27.3 65 36 9 24.1 100.48   -30 LegendNANA
06:00 Legend Double Dagger -22.9 -28.0 64 36 9 24.1 100.54   -30 LegendNANA
07:00 Legend Double Dagger -21.5 -27.0 62 36 9 24.1 100.61   -29 Clear
08:00 Legend Double Dagger -21.5 -26.4 65 36 9 24.1 100.68   -29 LegendNANA
09:00 Legend Double Dagger -20.4 -25.4 65 36 17 24.1 100.79   -30 LegendNANA
10:00 Legend Double Dagger -21.4 -26.9 62 36 17 24.1 100.87   -31 Clear
11:00 Legend Double Dagger -20.0 -26.1 59 36 9 24.1 100.93   -27 LegendNANA
12:00 Legend Double Dagger -17.5 -24.9 53 36 9 24.1 100.93   -24 LegendNANA
13:00 Legend Double Dagger -17.9 -24.6 56 36 9 24.1 100.92   -24 Clear
14:00 Legend Double Dagger -17.2 -24.6 53 31 13 24.1 100.93   -25 LegendNANA
15:00 Legend Double Dagger -16.8 -24.4 52 1 7 24.1 101.00   -22 LegendNANA
16:00 Legend Double Dagger -16.4 -23.8 53 34 8 24.1 101.07   -22 Clear
17:00 Legend Double Dagger -16.4 -24.4 51 30 17 24.1 101.13   -25 LegendNANA
18:00 Legend Double Dagger -17.1 -25.0 51 29 18 24.1 101.16   -26 LegendNANA
19:00 Legend Double Dagger -18.0 -25.5 52 28 17 24.1 101.19   -27 Clear
20:00 Legend Double Dagger -17.9 -24.6 57 31 18 24.1 101.23   -27 LegendNANA
21:00 Legend Double Dagger -18.3 -24.3 60 32 12 24.1 101.27   -26 LegendNANA
22:00 Legend Double Dagger -19.4 -24.8 63 24 9 24.1 101.25   -26 Clear
23:00 Legend Double Dagger -19.8 -24.7 66 25 9 24.1 101.26   -27 LegendNANA

Notes on Data Quality.

Legend

  • E = Estimated
  • M = Missing
  • NA = Not Available
  • ‡ = Partner data that is not subject to review by the National Climate Archives
Date modified: